Weather History for Wichita Jabara, KS

Change the Weather History Date:

Wednesday, January 9, 2013

  Actual Average (KICT) Record (KICT)
Temperature  
Mean Temperature 40 °F 32 °F  
Max Temperature 53 °F 42 °F 69 °F (1902)
Min Temperature 26 °F 22 °F -7 °F (1973)
Degree Days  
Heating Degree Days 26 33  
Month to date heating degree days 297  
Since 1 July heating degree days 2140  
Cooling Degree Days 0 0  
Month to date cooling degree days 0  
Year to date cooling degree days 0  
Moisture  
Dew Point 29 °F    
Average Humidity 66    
Maximum Humidity 88    
Minimum Humidity 43    
Precipitation  
Precipitation 0.00 in 0.03 in 1.12 in (1949)
Month to date precipitation 0.22  
Year to date precipitation 0.22  
Snow  
Snow 0.00 in 0.10 in 5.10 in (1993)
Month to date snowfall 1.0  
Since 1 July snowfall 6.6  
Snow Depth -    
Sea Level Pressure  
Sea Level Pressure 30.34 in    
Wind  
Wind Speed 6 mph (NE)    
Max Wind Speed 13 mph    
Max Gust Speed -    
Visibility 10 miles    
Events      
T = Trace of Precipitation, MM = Missing Value Source: NWS Daily Summary

Daily Weather History Graph

Daily Weather History Graph

Search for Another Location

Airport:

Trip Planner

Search our weather history database for the weather conditions in past years. The results will help you decide how hot, cold, wet, or windy it might be!

Date:

Astronomy

Jan. 09, 2013 Rise Set
Actual Time 7:44 AM CST 5:28 PM CST
Civil Twilight 7:15 AM CST 5:57 PM CST
Nautical Twilight 6:42 AM CST 6:29 PM CST
Astronomical Twilight 6:11 AM CST 7:01 PM CST
Moon 5:24 AM CST (1/9) 3:31 PM CST (1/9)
Length of Visible Light 10h 41m
Length of Day
9h 43m
Waning Crescent, 6% of the Moon is Illuminated
Jan 9
Waning Crescent
Jan 11
New
Jan 18
First Quarter
Jan 26
Full
Feb 3
Last Quarter

Hourly Weather History & Observations

Time (CST) Temp. Windchill Dew Point Humidity Pressure Visibility Wind Dir Wind Speed Gust Speed Precip Events Conditions
12:54 AM 33.1 °F 30.0 °F 27.0 °F 78% 30.24 in 10.0 mi ENE 3.5 mph - N/A   Clear
1:54 AM 30.9 °F 27.5 °F 26.1 °F 82% 30.27 in 10.0 mi North 3.5 mph - N/A   Clear
2:54 AM 28.9 °F 25.2 °F 25.0 °F 85% 30.27 in 10.0 mi NE 3.5 mph - N/A   Clear
3:54 AM 26.1 °F 21.9 °F 23.0 °F 88% 30.28 in 10.0 mi NNE 3.5 mph - N/A   Clear
4:54 AM 28.0 °F 19.3 °F 25.0 °F 88% 30.28 in 10.0 mi North 9.2 mph - N/A   Clear
6:54 AM 28.9 °F 22.8 °F 25.0 °F 85% 30.34 in 10.0 mi North 5.8 mph - N/A   Clear
7:54 AM 30.0 °F 24.1 °F 26.1 °F 85% 30.40 in 10.0 mi NE 5.8 mph - N/A   Clear
8:54 AM 33.1 °F 26.9 °F 28.0 °F 82% 30.41 in 10.0 mi NNE 6.9 mph - N/A   Clear
9:54 AM 36.0 °F 29.6 °F 30.0 °F 79% 30.42 in 10.0 mi North 8.1 mph - N/A   Clear
10:54 AM 42.1 °F 37.7 °F 32.0 °F 67% 30.43 in 10.0 mi North 6.9 mph - N/A   Clear
11:54 AM 48.9 °F - 33.1 °F 54% 30.40 in 10.0 mi NNE 12.7 mph - N/A   Clear
12:54 PM 51.1 °F - 33.1 °F 50% 30.38 in 10.0 mi NE 9.2 mph - N/A   Clear
1:54 PM 53.1 °F - 33.1 °F 47% 30.37 in 10.0 mi ENE 10.4 mph - N/A   Clear
2:54 PM 53.1 °F - 30.9 °F 43% 30.36 in 10.0 mi East 9.2 mph - N/A   Clear
3:54 PM 52.0 °F - 30.0 °F 43% 30.35 in 10.0 mi ENE 8.1 mph - N/A   Clear
4:54 PM 48.9 °F - 30.9 °F 50% 30.35 in 10.0 mi NE 6.9 mph - N/A   Clear
5:54 PM 45.0 °F 41.2 °F 30.9 °F 58% 30.35 in 10.0 mi NE 6.9 mph - N/A   Clear
6:54 PM 44.1 °F 40.8 °F 30.9 °F 60% 30.34 in 10.0 mi NE 5.8 mph - N/A   Clear
7:54 PM 44.1 °F 39.0 °F 30.9 °F 60% 30.34 in 10.0 mi NE 9.2 mph - N/A   Overcast
8:54 PM 44.1 °F 38.6 °F 32.0 °F 63% 30.33 in 10.0 mi ENE 10.4 mph - N/A   Overcast
9:54 PM 45.0 °F 39.7 °F 32.0 °F 60% 30.30 in 10.0 mi ENE 10.4 mph - N/A   Overcast
10:54 PM 46.9 °F - 30.9 °F 54% 30.27 in 10.0 mi East 11.5 mph - N/A   Clear
11:54 PM 46.9 °F - 32.0 °F 56% 30.24 in 10.0 mi East 12.7 mph - N/A   Overcast